HAZ2607 ZSHC-ZUCK

Flight info

Callsign HAZ2607
Flight time 2h 12m
Altitude 36100
Route NIVIK8D NIVIK W135 DOGVI W545 VEMEX W73 MADUK W51 LEGIV W164 ADGOL W50 XSH W80 IRPOG IRPOG7L
Aircraft B77W/H-SDE1E2E3FGHIJ2J3J4J5M1RWXY/LB1D1

Departure

Time 2026-04-24 00:43
Airport Hangzhou Xiaoshan International Airport (ZSHC)

Arrival

Time 2026-04-24 02:56
Airport Chongqing Jiangbei International Airport (ZUCK)
Time Latitude Longitude Altitude Speed Heading
2026-04-24 00:10 30.23975 120.42300 35 ft 0 kts 137°
2026-04-24 00:32 30.23976 120.42300 35 ft 0 kts 137°
2026-04-24 00:32 30.23986 120.42289 35 ft 2 kts 137°
2026-04-24 00:32 30.23997 120.42278 35 ft 2 kts 137°
2026-04-24 00:33 30.24008 120.42265 35 ft 2 kts 137°
2026-04-24 00:33 30.24019 120.42255 35 ft 1 kts 137°
2026-04-24 00:33 30.24026 120.42246 35 ft 2 kts 131°
2026-04-24 00:33 30.24034 120.42232 35 ft 2 kts 108°
2026-04-24 00:34 30.24037 120.42215 35 ft 2 kts 90°
2026-04-24 00:34 30.24036 120.42198 35 ft 2 kts 73°
2026-04-24 00:34 30.24032 120.42188 35 ft 1 kts 62°
2026-04-24 00:34 30.24032 120.42186 35 ft 0 kts 62°
2026-04-24 00:37 30.24032 120.42187 35 ft 0 kts 62°
2026-04-24 00:37 30.24035 120.42192 35 ft 3 kts 62°
2026-04-24 00:37 30.24060 120.42250 35 ft 14 kts 63°
2026-04-24 00:37 30.24123 120.42393 35 ft 20 kts 63°
2026-04-24 00:38 30.24212 120.42464 35 ft 16 kts 342°
2026-04-24 00:38 30.24316 120.42427 35 ft 13 kts 20°
2026-04-24 00:38 30.24365 120.42493 35 ft 12 kts 60°
2026-04-24 00:38 30.24410 120.42597 35 ft 16 kts 63°
2026-04-24 00:39 30.24468 120.42728 35 ft 19 kts 63°
2026-04-24 00:39 30.24539 120.42886 35 ft 24 kts 62°
2026-04-24 00:39 30.24616 120.43058 35 ft 23 kts 63°
2026-04-24 00:39 30.24695 120.43237 35 ft 24 kts 62°
2026-04-24 00:40 30.24770 120.43410 35 ft 23 kts 63°
2026-04-24 00:40 30.24849 120.43585 35 ft 25 kts 63°
2026-04-24 00:40 30.24926 120.43761 35 ft 23 kts 63°
2026-04-24 00:40 30.24997 120.43924 35 ft 17 kts 62°
2026-04-24 00:41 30.25023 120.43981 35 ft 0 kts 63°
2026-04-24 00:41 30.25028 120.43992 35 ft 6 kts 62°
2026-04-24 00:41 30.25067 120.44035 35 ft 8 kts
2026-04-24 00:41 30.25119 120.44016 35 ft 7 kts 333°
2026-04-24 00:42 30.25168 120.43986 35 ft 7 kts 331°
2026-04-24 00:42 30.25193 120.43943 35 ft 6 kts 268°
2026-04-24 00:42 30.25178 120.43894 35 ft 6 kts 241°
2026-04-24 00:42 30.25144 120.43819 35 ft 28 kts 242°
2026-04-24 00:43 30.24904 120.43277 35 ft 123 kts 243°
2026-04-24 00:43 30.24373 120.42084 111 ft 200 kts 243°
2026-04-24 00:43 30.23692 120.40569 1020 ft 225 kts 245°
2026-04-24 00:43 30.23028 120.39024 2272 ft 218 kts 244°
2026-04-24 00:44 30.22320 120.37373 2889 ft 236 kts 245°
2026-04-24 00:44 30.21539 120.35606 3446 ft 258 kts 243°
2026-04-24 00:44 30.20676 120.33724 4305 ft 269 kts 243°
2026-04-24 00:44 30.19815 120.31814 5265 ft 274 kts 244°
2026-04-24 00:45 30.18947 120.29869 6202 ft 279 kts 245°
2026-04-24 00:45 30.18047 120.27846 6786 ft 282 kts 244°
2026-04-24 00:45 30.17140 120.25811 6894 ft 283 kts 245°
2026-04-24 00:45 30.16242 120.23797 6903 ft 282 kts 245°
2026-04-24 00:46 30.15659 120.21598 7176 ft 296 kts 271°
2026-04-24 00:46 30.15985 120.19317 7798 ft 287 kts 293°
2026-04-24 00:46 30.17060 120.17414 7877 ft 279 kts 318°
2026-04-24 00:46 30.18649 120.16164 7887 ft 274 kts 332°
2026-04-24 00:47 30.20311 120.15147 7885 ft 271 kts 333°
2026-04-24 00:47 30.21984 120.14118 7887 ft 271 kts 333°
2026-04-24 00:47 30.23638 120.13084 7892 ft 270 kts 332°
2026-04-24 00:47 30.25286 120.12047 7866 ft 270 kts 332°
2026-04-24 00:48 30.27003 120.10965 8331 ft 287 kts 332°
2026-04-24 00:48 30.28693 120.09898 9671 ft 275 kts 332°
2026-04-24 00:48 30.30364 120.08842 10626 ft 277 kts 331°
2026-04-24 00:48 30.32102 120.07744 11166 ft 295 kts 331°
2026-04-24 00:49 30.33981 120.06556 11717 ft 312 kts 330°
2026-04-24 00:49 30.35905 120.05339 12345 ft 327 kts 330°
2026-04-24 00:49 30.37950 120.04044 12937 ft 342 kts 329°
2026-04-24 00:49 30.40082 120.02694 13571 ft 357 kts 329°
2026-04-24 00:50 30.42322 120.01275 14198 ft 371 kts 329°
2026-04-24 00:50 30.44631 119.99812 14958 ft 381 kts 329°
2026-04-24 00:50 30.46973 119.98331 15916 ft 385 kts 328°
2026-04-24 00:50 30.49318 119.96846 16893 ft 387 kts 328°
2026-04-24 00:51 30.51682 119.95348 17760 ft 392 kts 327°
2026-04-24 00:51 30.54092 119.93820 18581 ft 398 kts 327°
2026-04-24 00:51 30.56499 119.92293 19432 ft 402 kts 326°
2026-04-24 00:51 30.58955 119.90734 20275 ft 406 kts 326°
2026-04-24 00:52 30.61464 119.89141 21099 ft 410 kts 326°
2026-04-24 00:52 30.63967 119.87550 21868 ft 414 kts 325°
2026-04-24 00:52 30.66520 119.85963 22613 ft 419 kts 326°
2026-04-24 00:52 30.69134 119.84370 23357 ft 423 kts 326°
2026-04-24 00:53 30.71739 119.82783 24047 ft 428 kts 325°
2026-04-24 00:53 30.74391 119.81165 24678 ft 434 kts 325°
2026-04-24 00:53 30.77100 119.79508 25285 ft 440 kts 324°
2026-04-24 00:53 30.79793 119.77861 26003 ft 443 kts 324°
2026-04-24 00:54 30.82539 119.76180 26596 ft 448 kts 324°
2026-04-24 00:54 30.85318 119.74477 27230 ft 453 kts 324°
2026-04-24 00:54 30.88129 119.72752 27835 ft 458 kts 324°
2026-04-24 00:54 30.90920 119.71040 28524 ft 460 kts 323°
2026-04-24 00:55 30.93787 119.69277 29092 ft 465 kts 323°
2026-04-24 00:55 30.96653 119.67516 29720 ft 467 kts 323°
2026-04-24 00:55 30.99495 119.65769 30441 ft 467 kts 323°
2026-04-24 00:55 31.02359 119.64009 31254 ft 464 kts 323°
2026-04-24 00:56 31.05208 119.62258 32140 ft 458 kts 322°
2026-04-24 00:56 31.08005 119.60538 32961 ft 452 kts 322°
2026-04-24 00:56 31.10634 119.58919 33708 ft 447 kts 322°
2026-04-24 00:56 31.13391 119.57216 34314 ft 446 kts 321°
2026-04-24 00:57 31.16168 119.55497 34735 ft 448 kts 322°
2026-04-24 00:57 31.18982 119.53755 35174 ft 449 kts 322°
2026-04-24 00:57 31.24105 119.49750 36086 ft 437 kts 314°
2026-04-24 00:58 31.26563 119.47611 36178 ft 438 kts 314°
2026-04-24 00:58 31.31483 119.43331 36188 ft 436 kts 314°
2026-04-24 00:59 31.36344 119.39095 36185 ft 436 kts 314°
2026-04-24 00:59 31.41200 119.34862 36187 ft 436 kts 314°
2026-04-24 01:00 31.45967 119.30700 36204 ft 436 kts 314°
2026-04-24 01:00 31.50771 119.26502 36209 ft 437 kts 314°
2026-04-24 01:01 31.55562 119.22311 36208 ft 437 kts 314°
2026-04-24 01:01 31.60444 119.17994 36212 ft 439 kts 314°
2026-04-24 01:02 31.65295 119.13680 36203 ft 437 kts 313°
2026-04-24 01:02 31.69853 119.08993 36268 ft 434 kts 310°
2026-04-24 01:03 31.74417 119.04271 36025 ft 433 kts 310°
2026-04-24 01:03 31.76694 119.01923 36224 ft 436 kts 310°
2026-04-24 01:03 31.78874 118.99419 36226 ft 435 kts 304°
2026-04-24 01:04 31.82170 118.93672 36214 ft 418 kts 290°
2026-04-24 01:04 31.84013 118.87266 36218 ft 414 kts 277°
2026-04-24 01:05 31.84373 118.80602 36209 ft 407 kts 265°
2026-04-24 01:05 31.83667 118.73937 36214 ft 408 kts 263°
2026-04-24 01:06 31.82982 118.67344 36204 ft 406 kts 263°
2026-04-24 01:06 31.82346 118.60794 36208 ft 406 kts 263°
2026-04-24 01:07 31.81725 118.54179 36198 ft 408 kts 264°
2026-04-24 01:07 31.81107 118.47504 36200 ft 406 kts 263°
2026-04-24 01:08 31.80496 118.40874 36199 ft 409 kts 263°
2026-04-24 01:08 31.79887 118.34287 36194 ft 406 kts 263°
2026-04-24 01:09 31.78627 118.28052 36204 ft 409 kts 251°
2026-04-24 01:09 31.76311 118.21935 36212 ft 412 kts 248°
2026-04-24 01:10 31.73914 118.15817 36203 ft 409 kts 248°
2026-04-24 01:10 31.71700 118.09688 36201 ft 407 kts 254°
2026-04-24 01:11 31.70312 118.03224 36202 ft 407 kts 257°
2026-04-24 01:11 31.68985 117.96749 36195 ft 406 kts 257°
2026-04-24 01:12 31.67654 117.90287 36194 ft 409 kts 257°
2026-04-24 01:12 31.66317 117.83822 36192 ft 406 kts 257°
2026-04-24 01:13 31.64982 117.77383 36188 ft 407 kts 257°
2026-04-24 01:13 31.63640 117.70934 36189 ft 407 kts 257°
2026-04-24 01:14 31.62299 117.64507 36185 ft 407 kts 257°
2026-04-24 01:14 31.60960 117.58106 35995 ft 402 kts 257°
2026-04-24 01:14 31.60329 117.54897 36282 ft 405 kts 259°
2026-04-24 01:15 31.59766 117.51675 36195 ft 404 kts 259°
2026-04-24 01:15 31.58635 117.45213 36184 ft 403 kts 259°
2026-04-24 01:16 31.57502 117.38807 36188 ft 404 kts 259°
2026-04-24 01:16 31.56353 117.32359 36202 ft 403 kts 259°
2026-04-24 01:17 31.55208 117.25925 36203 ft 404 kts 259°
2026-04-24 01:17 31.54078 117.19520 36196 ft 401 kts 259°
2026-04-24 01:18 31.52941 117.13090 36199 ft 406 kts 259°
2026-04-24 01:18 31.51797 117.06654 36198 ft 401 kts 259°
2026-04-24 01:19 31.50661 117.00278 36195 ft 403 kts 259°
2026-04-24 01:19 31.49515 116.93869 36196 ft 401 kts 259°
2026-04-24 01:20 31.48247 116.87521 36192 ft 404 kts 253°
2026-04-24 01:20 31.45830 116.81563 36191 ft 406 kts 241°
2026-04-24 01:21 31.42454 116.76242 36190 ft 411 kts 237°
2026-04-24 01:21 31.38965 116.70914 36189 ft 410 kts 237°
2026-04-24 01:22 31.35521 116.65660 36188 ft 409 kts 238°
2026-04-24 01:22 31.32040 116.60354 36186 ft 408 kts 237°
2026-04-24 01:23 31.28596 116.55107 36186 ft 406 kts 237°
2026-04-24 01:23 31.25169 116.49892 36185 ft 407 kts 237°
2026-04-24 01:24 31.21715 116.44640 36182 ft 408 kts 237°
2026-04-24 01:24 31.18255 116.39391 36178 ft 408 kts 237°
2026-04-24 01:25 31.14802 116.34156 36179 ft 405 kts 237°
2026-04-24 01:25 31.11360 116.28945 36190 ft 408 kts 237°
2026-04-24 01:26 31.07893 116.23706 36181 ft 405 kts 237°
2026-04-24 01:26 31.04420 116.18459 36182 ft 405 kts 237°
2026-04-24 01:27 31.00992 116.13287 36182 ft 404 kts 237°
2026-04-24 01:27 30.97569 116.08131 36180 ft 402 kts 237°
2026-04-24 01:28 30.94136 116.02964 36182 ft 405 kts 237°
2026-04-24 01:28 30.90691 115.97789 36175 ft 402 kts 237°
2026-04-24 01:29 30.87236 115.92601 36181 ft 405 kts 237°
2026-04-24 01:29 30.83806 115.87444 36182 ft 403 kts 237°
2026-04-24 01:30 30.80393 115.82269 36175 ft 404 kts 237°
2026-04-24 01:30 30.76989 115.77103 36177 ft 402 kts 237°
2026-04-24 01:31 30.73589 115.71951 36174 ft 402 kts 237°
2026-04-24 01:31 30.70167 115.66774 36172 ft 403 kts 237°
2026-04-24 01:32 30.66746 115.61605 36175 ft 401 kts 237°
2026-04-24 01:32 30.63348 115.56479 36174 ft 404 kts 237°
2026-04-24 01:33 30.59953 115.51364 36172 ft 402 kts 237°
2026-04-24 01:33 30.56547 115.46238 36170 ft 402 kts 237°
2026-04-24 01:34 30.53141 115.41121 36169 ft 401 kts 237°
2026-04-24 01:34 30.49727 115.35997 36167 ft 400 kts 237°
2026-04-24 01:35 30.46662 115.30608 36188 ft 399 kts 246°
2026-04-24 01:35 30.44843 115.24593 36183 ft 395 kts 258°
2026-04-24 01:36 30.44373 115.18232 36183 ft 398 kts 270°
2026-04-24 01:36 30.44986 115.11859 36185 ft 399 kts 274°
2026-04-24 01:37 30.45680 115.05467 36186 ft 400 kts 273°
2026-04-24 01:37 30.46353 114.99082 36186 ft 402 kts 274°
2026-04-24 01:38 30.47018 114.92673 36180 ft 399 kts 273°
2026-04-24 01:38 30.47677 114.86251 36181 ft 403 kts 274°
2026-04-24 01:39 30.48331 114.79829 36178 ft 401 kts 274°
2026-04-24 01:39 30.48980 114.73419 36177 ft 402 kts 274°
2026-04-24 01:40 30.49627 114.66992 36173 ft 405 kts 274°
2026-04-24 01:40 30.50277 114.60503 36177 ft 404 kts 274°
2026-04-24 01:41 30.50919 114.54052 36176 ft 404 kts 274°
2026-04-24 01:41 30.51561 114.47571 36176 ft 403 kts 274°
2026-04-24 01:42 30.52195 114.41137 36181 ft 403 kts 274°
2026-04-24 01:42 30.52830 114.34665 36178 ft 404 kts 274°
2026-04-24 01:43 30.53460 114.28208 36200 ft 404 kts 274°
2026-04-24 01:43 30.54085 114.21766 36201 ft 402 kts 274°
2026-04-24 01:44 30.54698 114.15314 36192 ft 403 kts 274°
2026-04-24 01:44 30.55313 114.08875 36199 ft 404 kts 274°
2026-04-24 01:45 30.55946 114.02363 36198 ft 404 kts 274°
2026-04-24 01:45 30.56556 113.95867 36191 ft 404 kts 274°
2026-04-24 01:46 30.57157 113.89380 36179 ft 404 kts 274°
2026-04-24 01:46 30.57669 113.82932 36186 ft 402 kts 269°
2026-04-24 01:47 30.57479 113.76391 36186 ft 404 kts 266°
2026-04-24 01:47 30.57237 113.69916 36174 ft 402 kts 267°
2026-04-24 01:48 30.56993 113.63432 36176 ft 402 kts 267°
2026-04-24 01:48 30.56745 113.56931 36168 ft 404 kts 266°
2026-04-24 01:49 30.56495 113.50430 36173 ft 404 kts 267°
2026-04-24 01:49 30.56240 113.43884 36172 ft 404 kts 267°
2026-04-24 01:50 30.55983 113.37360 36180 ft 406 kts 267°
2026-04-24 01:50 30.55721 113.30791 36187 ft 404 kts 266°
2026-04-24 01:51 30.55458 113.24272 36182 ft 406 kts 266°
2026-04-24 01:51 30.55190 113.17733 36187 ft 406 kts 266°
2026-04-24 01:52 30.54920 113.11184 36188 ft 406 kts 266°
2026-04-24 01:52 30.54649 113.04668 36165 ft 406 kts 266°
2026-04-24 01:53 30.54372 112.98088 36162 ft 407 kts 266°
2026-04-24 01:53 30.54092 112.91519 36186 ft 406 kts 267°
2026-04-24 01:54 30.53813 112.85035 36171 ft 406 kts 266°
2026-04-24 01:54 30.53526 112.78453 36175 ft 407 kts 266°
2026-04-24 01:55 30.53237 112.71892 36183 ft 406 kts 266°
2026-04-24 01:55 30.52946 112.65365 36162 ft 407 kts 266°
2026-04-24 01:56 30.52651 112.58800 36181 ft 406 kts 266°
2026-04-24 01:56 30.52353 112.52268 36178 ft 406 kts 266°
2026-04-24 01:57 30.52052 112.45743 36183 ft 406 kts 266°
2026-04-24 01:57 30.51748 112.39208 36179 ft 406 kts 267°
2026-04-24 01:58 30.51441 112.32692 36184 ft 405 kts 266°
2026-04-24 01:58 30.51128 112.26115 36190 ft 407 kts 266°
2026-04-24 01:59 30.50814 112.19575 36195 ft 407 kts 266°
2026-04-24 01:59 30.50496 112.13044 36187 ft 406 kts 266°
2026-04-24 02:00 30.50176 112.06522 36190 ft 407 kts 266°
2026-04-24 02:00 30.49851 111.99960 36158 ft 407 kts 266°
2026-04-24 02:01 30.49522 111.93385 36193 ft 408 kts 266°
2026-04-24 02:01 30.49192 111.86877 36195 ft 408 kts 266°
2026-04-24 02:02 30.48865 111.80469 36179 ft 406 kts 266°
2026-04-24 02:02 30.48527 111.73921 36183 ft 408 kts 266°
2026-04-24 02:03 30.48009 111.64092 36176 ft 407 kts 266°
2026-04-24 02:03 30.47653 111.57485 36176 ft 411 kts 266°
2026-04-24 02:04 30.47299 111.50959 36173 ft 408 kts 266°
2026-04-24 02:04 30.46609 111.44382 36172 ft 410 kts 262°
2026-04-24 02:05 30.45711 111.37838 36185 ft 412 kts 262°
2026-04-24 02:05 30.44814 111.31342 36191 ft 409 kts 261°
2026-04-24 02:06 30.43908 111.24821 36209 ft 413 kts 261°
2026-04-24 02:06 30.43000 111.18302 36206 ft 409 kts 261°
2026-04-24 02:07 30.42084 111.11755 36209 ft 412 kts 261°
2026-04-24 02:07 30.41171 111.05260 36213 ft 411 kts 261°
2026-04-24 02:08 30.40250 110.98724 36210 ft 410 kts 261°
2026-04-24 02:08 30.39324 110.92177 36220 ft 412 kts 261°
2026-04-24 02:09 30.38397 110.85649 36233 ft 411 kts 261°
2026-04-24 02:09 30.37460 110.79069 36251 ft 414 kts 261°
2026-04-24 02:10 30.36527 110.72551 36261 ft 412 kts 261°
2026-04-24 02:10 30.35590 110.66025 36253 ft 412 kts 261°
2026-04-24 02:11 30.34644 110.59459 36249 ft 414 kts 261°
2026-04-24 02:11 30.33693 110.52877 36236 ft 412 kts 261°
2026-04-24 02:12 30.32735 110.46278 36233 ft 413 kts 261°
2026-04-24 02:12 30.31787 110.39771 36236 ft 412 kts 261°
2026-04-24 02:13 30.30827 110.33203 36252 ft 413 kts 261°
2026-04-24 02:13 30.29868 110.26664 36255 ft 414 kts 261°
2026-04-24 02:14 30.28899 110.20088 36246 ft 414 kts 260°
2026-04-24 02:14 30.28414 110.16805 36108 ft 413 kts 260°
2026-04-24 02:14 30.27933 110.13550 36517 ft 412 kts 260°
2026-04-24 02:15 30.27445 110.10254 36300 ft 417 kts 261°
2026-04-24 02:15 30.26957 110.06966 36274 ft 412 kts 261°
2026-04-24 02:15 30.25989 110.00463 36285 ft 413 kts 260°
2026-04-24 02:16 30.25010 109.93906 36288 ft 412 kts 260°
2026-04-24 02:16 30.24029 109.87360 36290 ft 414 kts 261°
2026-04-24 02:17 30.23045 109.80822 36298 ft 414 kts 261°
2026-04-24 02:17 30.22055 109.74269 36287 ft 414 kts 261°
2026-04-24 02:18 30.21058 109.67703 36278 ft 416 kts 261°
2026-04-24 02:18 30.20086 109.61356 36264 ft 414 kts 259°
2026-04-24 02:19 30.18506 109.54910 36260 ft 417 kts 255°
2026-04-24 02:19 30.16828 109.48591 36245 ft 417 kts 255°
2026-04-24 02:20 30.15095 109.42072 36249 ft 419 kts 255°
2026-04-24 02:20 30.13388 109.35659 36247 ft 417 kts 255°
2026-04-24 02:21 30.11704 109.29343 36262 ft 420 kts 255°
2026-04-24 02:21 30.09979 109.22887 36257 ft 419 kts 255°
2026-04-24 02:22 30.08281 109.16559 36265 ft 422 kts 254°
2026-04-24 02:22 30.06538 109.10093 36271 ft 424 kts 255°
2026-04-24 02:23 30.04789 109.03614 36274 ft 422 kts 255°
2026-04-24 02:23 30.03045 108.97167 36266 ft 423 kts 255°
2026-04-24 02:24 30.01322 108.90653 36265 ft 424 kts 255°
2026-04-24 02:24 29.99608 108.84127 36259 ft 424 kts 255°
2026-04-24 02:25 29.97902 108.77655 36264 ft 424 kts 255°
2026-04-24 02:25 29.96177 108.71127 36255 ft 424 kts 255°
2026-04-24 02:26 29.94458 108.64628 36254 ft 423 kts 255°
2026-04-24 02:26 29.92739 108.58144 36251 ft 425 kts 255°
2026-04-24 02:27 29.91010 108.51637 36243 ft 422 kts 256°
2026-04-24 02:27 29.89284 108.45155 36240 ft 425 kts 256°
2026-04-24 02:28 29.87549 108.38654 36242 ft 425 kts 256°
2026-04-24 02:28 29.85814 108.32166 36264 ft 428 kts 255°
2026-04-24 02:29 29.84075 108.25678 36272 ft 428 kts 255°
2026-04-24 02:29 29.82322 108.19154 36273 ft 427 kts 256°
2026-04-24 02:30 29.80568 108.12638 36253 ft 429 kts 256°
2026-04-24 02:30 29.78791 108.06053 36248 ft 429 kts 256°
2026-04-24 02:31 29.77102 107.99508 36221 ft 426 kts 260°
2026-04-24 02:31 29.76616 107.92744 36217 ft 424 kts 274°
2026-04-24 02:32 29.77701 107.86155 36212 ft 422 kts 288°
2026-04-24 02:32 29.79804 107.79797 36221 ft 424 kts 290°
2026-04-24 02:33 29.81931 107.73460 36211 ft 423 kts 290°
2026-04-24 02:33 29.84029 107.67174 36198 ft 423 kts 290°
2026-04-24 02:34 29.84135 107.66856 36198 ft 423 kts 290°
2026-04-24 02:34 29.84770 107.64950 36194 ft 423 kts 290°
2026-04-24 02:35 29.86791 107.58871 36186 ft 425 kts 290°
2026-04-24 02:35 29.88891 107.52548 36177 ft 423 kts 290°
2026-04-24 02:36 29.90903 107.46469 35581 ft 416 kts 290°
2026-04-24 02:36 29.91957 107.43281 34875 ft 415 kts 290°
2026-04-24 02:36 29.92991 107.40152 34141 ft 415 kts 291°
2026-04-24 02:37 29.93970 107.37186 33468 ft 415 kts 291°
2026-04-24 02:37 29.94975 107.34135 32794 ft 414 kts 290°
2026-04-24 02:37 29.96005 107.31010 32073 ft 427 kts 291°
2026-04-24 02:37 29.97041 107.27863 31319 ft 439 kts 291°
2026-04-24 02:38 29.98121 107.24579 30552 ft 440 kts 291°
2026-04-24 02:38 29.99201 107.21295 29789 ft 440 kts 291°
2026-04-24 02:38 30.00241 107.18134 29058 ft 439 kts 291°
2026-04-24 02:38 30.01336 107.14807 28310 ft 442 kts 291°
2026-04-24 02:39 30.02427 107.11493 27589 ft 447 kts 291°
2026-04-24 02:39 30.03532 107.08138 26878 ft 451 kts 291°
2026-04-24 02:39 30.04649 107.04748 26169 ft 454 kts 291°
2026-04-24 02:39 30.05769 107.01352 25491 ft 456 kts 291°
2026-04-24 02:40 30.06836 106.97881 24741 ft 458 kts 286°
2026-04-24 02:40 30.07468 106.94292 23654 ft 454 kts 277°
2026-04-24 02:40 30.07546 106.90716 22817 ft 440 kts 268°
2026-04-24 02:40 30.07089 106.87324 22208 ft 423 kts 258°
2026-04-24 02:41 30.06161 106.84161 21634 ft 409 kts 250°
2026-04-24 02:41 30.04876 106.81287 21144 ft 408 kts 242°
2026-04-24 02:41 30.03180 106.78632 20289 ft 417 kts 232°
2026-04-24 02:41 30.01060 106.76308 19613 ft 421 kts 222°
2026-04-24 02:42 29.98606 106.74443 19028 ft 422 kts 212°
2026-04-24 02:42 29.95899 106.73101 18452 ft 424 kts 201°
2026-04-24 02:42 29.93047 106.72330 17872 ft 425 kts 191°
2026-04-24 02:42 29.90090 106.72142 17274 ft 426 kts 180°
2026-04-24 02:43 29.87122 106.72376 16684 ft 424 kts 177°
2026-04-24 02:43 29.84199 106.72656 16088 ft 422 kts 177°
2026-04-24 02:43 29.81259 106.72938 15496 ft 420 kts 177°
2026-04-24 02:43 29.78371 106.73217 14915 ft 418 kts 177°
2026-04-24 02:44 29.75461 106.73497 14325 ft 416 kts 176°
2026-04-24 02:44 29.72587 106.73773 13698 ft 415 kts 176°
2026-04-24 02:44 29.69682 106.74052 12968 ft 416 kts 176°
2026-04-24 02:44 29.66791 106.74329 12320 ft 415 kts 176°
2026-04-24 02:45 29.63950 106.74587 11627 ft 403 kts 179°
2026-04-24 02:45 29.61198 106.74436 11101 ft 384 kts 190°
2026-04-24 02:45 29.58662 106.73753 10868 ft 359 kts 197°
2026-04-24 02:45 29.56331 106.72986 10764 ft 335 kts 198°
2026-04-24 02:46 29.54147 106.72259 10594 ft 315 kts 198°
2026-04-24 02:46 29.52085 106.71561 10456 ft 313 kts 198°
2026-04-24 02:46 29.50016 106.70850 10352 ft 306 kts 198°
2026-04-24 02:46 29.48017 106.70162 10183 ft 289 kts 198°
2026-04-24 02:47 29.46143 106.69515 10032 ft 277 kts 198°
2026-04-24 02:47 29.44231 106.68854 9644 ft 288 kts 198°
2026-04-24 02:47 29.42304 106.68188 9152 ft 291 kts 197°
2026-04-24 02:47 29.40328 106.67509 8653 ft 290 kts 198°
2026-04-24 02:48 29.38541 106.66502 8144 ft 286 kts 222°
2026-04-24 02:48 29.37330 106.64771 7640 ft 280 kts 248°
2026-04-24 02:48 29.36921 106.62623 7135 ft 273 kts 274°
2026-04-24 02:48 29.37156 106.60469 6515 ft 277 kts 284°
2026-04-24 02:49 29.37747 106.58366 5757 ft 282 kts 302°
2026-04-24 02:49 29.39053 106.56734 5089 ft 281 kts 328°
2026-04-24 02:49 29.40819 106.55960 4868 ft 263 kts 357°
2026-04-24 02:49 29.42619 106.56240 4888 ft 261 kts 19°
2026-04-24 02:50 29.44298 106.56920 4878 ft 247 kts 21°
2026-04-24 02:50 29.45871 106.57584 4868 ft 235 kts 21°
2026-04-24 02:50 29.47424 106.58215 4873 ft 234 kts 19°
2026-04-24 02:50 29.48972 106.58803 4876 ft 235 kts 18°
2026-04-24 02:51 29.50544 106.59370 4876 ft 235 kts 18°
2026-04-24 02:51 29.52094 106.59911 4877 ft 226 kts 17°
2026-04-24 02:51 29.53564 106.60412 4868 ft 211 kts 17°
2026-04-24 02:51 29.54940 106.60873 4737 ft 203 kts 17°
2026-04-24 02:52 29.56294 106.61332 4492 ft 201 kts 17°
2026-04-24 02:52 29.57636 106.61792 4238 ft 200 kts 17°
2026-04-24 02:52 29.58978 106.62255 3980 ft 199 kts 17°
2026-04-24 02:52 29.60299 106.62711 3720 ft 199 kts 17°
2026-04-24 02:53 29.61629 106.63171 3458 ft 192 kts 17°
2026-04-24 02:53 29.62854 106.63594 3222 ft 180 kts 18°
2026-04-24 02:53 29.64025 106.63998 2998 ft 170 kts 18°
2026-04-24 02:53 29.65113 106.64375 2783 ft 156 kts 18°
2026-04-24 02:54 29.66148 106.64734 2588 ft 152 kts 18°
2026-04-24 02:54 29.67166 106.65086 2391 ft 151 kts 18°
2026-04-24 02:54 29.68166 106.65433 2198 ft 151 kts 18°
2026-04-24 02:54 29.69188 106.65773 2002 ft 151 kts 18°
2026-04-24 02:55 29.70193 106.66121 1818 ft 153 kts 19°
2026-04-24 02:55 29.71199 106.66482 1588 ft 150 kts 17°
2026-04-24 02:55 29.72202 106.66825 1397 ft 150 kts 18°
2026-04-24 02:55 29.73125 106.67143 1380 ft 121 kts 18°
2026-04-24 02:56 29.73821 106.67384 1381 ft 84 kts 17°
2026-04-24 02:56 29.74166 106.67491 1381 ft 31 kts
2026-04-24 02:56 29.74359 106.67484 1381 ft 19 kts 351°
2026-04-24 02:56 29.74437 106.67459 1381 ft 10 kts 344°
2026-04-24 02:57 29.74532 106.67441 1381 ft 13 kts
2026-04-24 02:57 29.74626 106.67451 1381 ft 12 kts 350°
2026-04-24 02:57 29.74675 106.67374 1381 ft 16 kts 286°
2026-04-24 02:57 29.74713 106.67222 1381 ft 14 kts 286°
2026-04-24 02:58 29.74734 106.67126 1381 ft 11 kts 270°
2026-04-24 02:58 29.74633 106.67049 1381 ft 22 kts 194°
2026-04-24 02:58 29.74479 106.66997 1381 ft 24 kts 197°
2026-04-24 02:58 29.74302 106.66936 1381 ft 27 kts 197°
2026-04-24 02:59 29.74124 106.66875 1381 ft 25 kts 197°
2026-04-24 02:59 29.73964 106.66821 1381 ft 23 kts 197°
2026-04-24 02:59 29.73817 106.66764 1380 ft 21 kts 198°
2026-04-24 02:59 29.73681 106.66721 1380 ft 20 kts 195°
2026-04-24 03:00 29.73517 106.66665 1380 ft 28 kts 197°
2026-04-24 03:00 29.73331 106.66601 1380 ft 26 kts 197°
2026-04-24 03:00 29.73147 106.66537 1380 ft 29 kts 197°
2026-04-24 03:00 29.72974 106.66476 1380 ft 25 kts 197°
2026-04-24 03:01 29.72802 106.66418 1380 ft 27 kts 197°
2026-04-24 03:01 29.72618 106.66353 1380 ft 27 kts 197°
2026-04-24 03:01 29.72436 106.66290 1379 ft 26 kts 197°
2026-04-24 03:01 29.72262 106.66230 1379 ft 25 kts 197°
2026-04-24 03:02 29.72092 106.66171 1379 ft 24 kts 197°
2026-04-24 03:02 29.71937 106.66117 1379 ft 20 kts 198°
2026-04-24 03:02 29.71892 106.66042 1379 ft 10 kts 256°
2026-04-24 03:02 29.71797 106.65962 1379 ft 22 kts 196°
2026-04-24 03:03 29.71663 106.65918 1379 ft 18 kts 195°
2026-04-24 03:03 29.71546 106.65875 1379 ft 15 kts 197°
2026-04-24 03:03 29.71447 106.65845 1379 ft 14 kts 199°
2026-04-24 03:03 29.71357 106.65795 1379 ft 16 kts 211°
2026-04-24 03:04 29.71307 106.65760 1379 ft 0 kts 213°
2026-04-24 03:04 29.71304 106.65758 1379 ft 4 kts 213°
2026-04-24 03:04 29.71215 106.65699 1378 ft 24 kts 204°
2026-04-24 03:05 29.71091 106.65665 1378 ft 13 kts 201°
2026-04-24 03:05 29.71058 106.65576 1378 ft 12 kts 262°
2026-04-24 03:05 29.71049 106.65494 1378 ft 6 kts 262°
2026-04-24 03:05 29.71046 106.65474 1378 ft 2 kts 262°
2026-04-24 03:06 29.71046 106.65473 1378 ft 0 kts 262°